Date String (YYYY-MM-DD hh:mm:ss) UTC,Instrument flags,absolute air pressure of the measurement (hPa),sample flow rate (lpm),inlet stack bypass flow (lpm),air temperature of the measurement (°C),ambient temperature measured by the external sensor (°C),aerosol sample conditioner tube jacket temperature (°C),OPC LED temperature (°C),internal box temperature (°C),relative humidity of the measurement (%),span deviation,mass concentration of particles derived from Lorenz-Mie calculation of OPC scattering (μg/m³),mass concentration of particles derived from Lorenz-Mie calculation of OPC scattering (μg/m³),mass concentration of particles derived from Lorenz-Mie calculation of OPC scattering (μg/m³)
DateTimeUTC,F1_M11,P_M11,Q1_M11,Q2_M11,T1_M11,T2_M11,T3_M11,T4_M11,T5_M11,U1_M11,ZSPAN_M11,X0_M11,X2_M11,X1_M11
2024-04-17 19:00:00,SystemResetWarning,0823.6,4.99,000.00,025.4,024.6,000.0,033.7,027.3,014.4,0000.0,0007.31,0002.80,0001.79
2024-04-17 19:01:00,SystemResetWarning,0823.6,4.99,000.00,025.4,024.7,000.0,033.7,027.3,014.3,0000.0,0007.56,0002.78,0001.79
2024-04-17 19:02:00,SystemResetWarning,0823.5,5.00,000.00,025.5,024.8,000.0,033.7,027.4,014.4,0000.0,0007.82,0002.80,0001.82
2024-04-17 19:03:00,SystemResetWarning,0823.5,5.00,000.00,025.5,024.9,000.0,033.7,027.4,014.1,0000.0,0007.94,0002.83,0001.83
2024-04-17 19:04:00,SystemResetWarning,0823.5,5.02,000.00,025.6,025.0,000.0,033.8,027.5,014.0,0000.0,0009.03,0002.84,0001.82
2024-04-17 19:05:00,SystemResetWarning,0823.5,5.00,000.00,025.6,025.0,000.0,033.8,027.5,014.5,0000.0,0010.14,0002.88,0001.82
2024-04-17 19:06:00,SystemResetWarning,0823.5,5.00,000.00,025.7,025.1,000.0,033.8,027.6,013.6,0000.0,0010.55,0002.98,0001.81
2024-04-17 19:07:00,SystemResetWarning,0823.4,5.00,000.00,025.7,025.1,000.0,033.9,027.6,013.0,0000.0,0010.75,0003.04,0001.80
2024-04-17 19:08:00,SystemResetWarning,0823.5,5.00,000.00,025.7,025.2,000.0,033.9,027.7,013.0,0000.0,0010.67,0003.01,0001.79
2024-04-17 19:09:00,SystemResetWarning,0823.5,5.00,000.00,025.8,025.3,000.0,033.9,027.7,012.8,0000.0,0010.40,0003.01,0001.78
2024-04-17 19:10:00,SystemResetWarning,0823.5,5.00,000.00,025.8,025.2,000.0,034.0,027.7,012.7,0000.0,0010.28,0002.97,0001.77
2024-04-17 19:11:00,SystemResetWarning,0823.5,4.99,000.00,025.6,023.6,000.0,034.0,026.8,012.7,0000.0,0010.65,0002.98,0001.77
2024-04-17 19:12:00,SystemResetWarning,0823.4,5.02,000.00,025.2,022.5,000.0,034.0,026.1,013.5,0000.0,0010.86,0002.99,0001.76
2024-04-17 19:13:00,SystemResetWarning,0823.4,5.00,000.00,025.1,022.7,000.0,033.9,026.1,014.4,0000.0,0010.71,0003.07,0001.73
2024-04-17 19:14:00,SystemResetWarning,0823.4,4.99,000.00,025.1,023.0,000.0,033.8,026.3,014.5,0000.0,0010.90,0003.10,0001.73
2024-04-17 19:15:00,SystemResetWarning,0823.4,5.00,000.00,025.1,023.3,000.0,033.7,026.6,014.5,0000.0,0009.95,0003.11,0001.73
2024-04-17 19:16:00,SystemResetWarning,0823.4,5.00,000.00,025.1,023.6,000.0,033.7,026.8,014.5,0000.0,0008.55,0003.05,0001.71
2024-04-17 19:17:00,SystemResetWarning,0823.4,5.00,000.00,025.2,023.8,000.0,033.7,026.9,014.6,0000.0,0008.54,0003.07,0001.71
2024-04-17 19:18:00,SystemResetWarning,0823.4,5.00,000.00,025.2,024.1,000.0,033.7,027.0,014.0,0000.0,0009.32,0003.01,0001.71
2024-04-17 19:19:00,SystemResetWarning,0823.4,5.00,000.00,025.3,024.3,000.0,033.7,027.1,013.8,0000.0,0009.66,0003.03,0001.73
2024-04-17 19:20:00,SystemResetWarning,0823.4,5.01,000.00,025.3,024.4,000.0,033.7,027.2,013.6,0000.0,0009.86,0003.03,0001.72
2024-04-17 19:21:00,SystemResetWarning,0823.4,5.00,000.00,025.4,024.6,000.0,033.7,027.3,013.6,0000.0,0009.86,0003.05,0001.72
2024-04-17 19:22:00,SystemResetWarning,0823.5,5.00,000.00,025.4,024.7,000.0,033.7,027.3,013.1,0000.0,0009.42,0003.02,0001.73
2024-04-17 19:23:00,SystemResetWarning,0823.4,4.99,000.00,025.5,024.8,000.0,033.7,027.4,013.7,0000.0,0009.22,0002.92,0001.72
2024-04-17 19:24:00,SystemResetWarning,0823.4,5.00,000.00,025.5,024.9,000.0,033.8,027.5,014.0,0000.0,0009.24,0002.77,0001.71
2024-04-17 19:25:00,SystemResetWarning,0823.4,5.00,000.00,025.6,025.0,000.0,033.8,027.5,013.5,0000.0,0009.57,0002.73,0001.70
2024-04-17 19:26:00,SystemResetWarning,0823.4,5.00,000.00,025.6,025.1,000.0,033.8,027.6,013.5,0000.0,0009.47,0002.74,0001.69
2024-04-17 19:27:00,SystemResetWarning,0823.4,5.01,000.00,025.7,025.1,000.0,033.8,027.6,013.2,0000.0,0009.52,0002.79,0001.71
2024-04-17 19:28:00,SystemResetWarning,0823.4,5.01,000.00,025.7,025.2,000.0,033.9,027.7,013.4,0000.0,0009.32,0002.75,0001.71
2024-04-17 19:29:00,SystemResetWarning,0823.5,4.99,000.00,025.8,025.2,000.0,033.9,027.7,014.0,0000.0,0008.24,0002.78,0001.72
2024-04-17 19:30:00,SystemResetWarning,0823.5,4.99,000.00,025.8,025.0,000.0,034.0,027.5,014.3,0000.0,0007.85,0002.74,0001.71
2024-04-17 19:31:00,SystemResetWarning,0823.4,5.00,000.00,025.5,023.0,000.0,034.0,026.3,014.5,0000.0,0008.04,0002.75,0001.71
2024-04-17 19:32:00,SystemResetWarning,0823.4,5.00,000.00,025.0,021.5,000.0,034.0,025.4,014.7,0000.0,0008.99,0002.70,0001.71
2024-04-17 19:33:00,SystemResetWarning,0823.3,5.01,000.00,024.8,021.7,000.0,033.9,025.4,014.7,0000.0,0009.37,0002.72,0001.70
2024-04-17 19:34:00,SystemResetWarning,0823.3,5.01,000.00,024.7,022.1,000.0,033.7,025.7,014.1,0000.0,0009.78,0002.79,0001.72
2024-04-17 19:35:00,SystemResetWarning,0823.3,5.00,000.00,024.7,022.5,000.0,033.6,026.1,013.8,0000.0,0009.53,0002.88,0001.74
2024-04-17 19:36:00,SystemResetWarning,0823.3,4.99,000.00,024.7,022.9,000.0,033.5,026.3,014.0,0000.0,0009.01,0002.86,0001.74
2024-04-17 19:37:00,SystemResetWarning,0823.3,5.00,000.00,024.8,023.2,000.0,033.5,026.5,014.7,0000.0,0008.85,0002.78,0001.73
2024-04-17 19:38:00,SystemResetWarning,0823.3,5.00,000.00,024.8,023.5,000.0,033.4,026.6,014.9,0000.0,0008.86,0002.72,0001.73
2024-04-17 19:39:00,SystemResetWarning,0823.3,5.01,000.00,024.9,023.7,000.0,033.4,026.7,014.3,0000.0,0008.80,0002.70,0001.73
2024-04-17 19:40:00,SystemResetWarning,0823.3,4.99,000.00,025.0,023.9,000.0,033.4,026.8,013.9,0000.0,0008.78,0002.66,0001.71
2024-04-17 19:41:00,SystemResetWarning,0823.3,5.00,000.00,025.0,024.1,000.0,033.4,026.9,014.1,0000.0,0008.63,0002.67,0001.69
2024-04-17 19:42:00,SystemResetWarning,0823.3,5.00,000.00,025.1,024.3,000.0,033.4,027.0,014.1,0000.0,0008.74,0002.69,0001.69
2024-04-17 19:43:00,SystemResetWarning,0823.3,4.99,000.00,025.1,024.4,000.0,033.4,027.1,014.0,0000.0,0008.28,0002.74,0001.68
2024-04-17 19:44:00,SystemResetWarning,0823.3,5.00,000.00,025.2,024.5,000.0,033.5,027.1,014.1,0000.0,0007.96,0002.76,0001.68
2024-04-17 19:45:00,SystemResetWarning,0823.3,5.00,000.00,025.3,024.6,000.0,033.5,027.2,014.3,0000.0,0007.42,0002.75,0001.68
2024-04-17 19:46:00,SystemResetWarning,0823.3,5.00,000.00,025.3,024.7,000.0,033.5,027.3,013.6,0000.0,0007.47,0002.73,0001.67
2024-04-17 19:47:00,SystemResetWarning,0823.3,5.00,000.00,025.4,024.8,000.0,033.5,027.3,013.5,0000.0,0007.66,0002.70,0001.67
2024-04-17 19:48:00,SystemResetWarning,0823.3,5.00,000.00,025.4,024.9,000.0,033.6,027.4,013.2,0000.0,0008.63,0002.75,0001.66
2024-04-17 19:49:00,SystemResetWarning,0823.3,4.99,000.00,025.5,025.0,000.0,033.6,027.4,013.8,0000.0,0008.54,0002.74,0001.66
2024-04-17 19:50:00,SystemResetWarning,0823.3,5.00,000.00,025.5,025.0,000.0,033.6,027.5,014.1,0000.0,0008.65,0002.75,0001.66
2024-04-17 19:51:00,SystemResetWarning,0823.3,5.00,000.00,025.6,025.1,000.0,033.7,027.5,013.3,0000.0,0009.21,0002.76,0001.68
2024-04-17 19:52:00,SystemResetWarning,0823.3,5.00,000.00,025.6,025.1,000.0,033.7,027.6,013.7,0000.0,0009.14,0002.73,0001.69
2024-04-17 19:53:00,SystemResetWarning,0823.2,5.00,000.00,025.7,025.2,000.0,033.8,027.6,013.4,0000.0,0008.72,0002.66,0001.68
2024-04-17 19:54:00,SystemResetWarning,0823.1,5.01,000.00,025.7,025.2,000.0,033.8,027.7,013.0,0000.0,0008.39,0002.61,0001.68
2024-04-17 19:55:00,SystemResetWarning,0823.1,5.00,000.00,025.8,025.3,000.0,033.8,027.7,013.0,0000.0,0008.74,0002.61,0001.68
2024-04-17 19:56:00,SystemResetWarning,0823.1,5.00,000.00,025.8,025.3,000.0,033.9,027.7,012.8,0000.0,0008.97,0002.60,0001.66
2024-04-17 19:57:00,SystemResetWarning,0823.0,5.00,000.00,025.9,025.3,000.0,033.9,027.7,012.9,0000.0,0008.74,0002.55,0001.66
2024-04-17 19:58:00,SystemResetWarning,0822.9,4.99,000.00,025.6,023.5,000.0,034.0,026.7,013.5,0000.0,0008.53,0002.52,0001.65
2024-04-17 19:59:00,SystemResetWarning,0822.9,5.02,000.00,025.3,022.5,000.0,034.0,026.1,013.3,0000.0,0007.50,0002.49,0001.66
